Regional Weather Roundup
Issued by NWS Melbourne, FL

Home | Current Version | Previous Version | Text Only | Print | Product List | Glossary On
Versions: 1 2 3 4 5 6 7 8 9 10 11 12 13 14 15 16 17 18 19 20 21 22 23 24 25 26 27
000
ASUS42 KMLB 031012
RWRMLB
HOURLY WEATHER ROUNDUP AROUND FLORIDA
NATIONAL WEATHER SERVICE OFFICE MELBOURNE FL
600 AM EDT TUE AUG 03 2021

CITY           SKY/WX    TMP DP  RH WIND       PRES   REMARKS
MELBOURNE      MOCLDY    76  74  93 S6        29.98R
FORT PIERCE    MOCLDY    77  75  93 SE5       29.99R
ORLANDO INTL   CLOUDY    77  74  90 SW5       29.98R
DAYTONA BEACH  LGT RAIN  76  73  91 SW5       29.96S
VERO BEACH     PTCLDY    75  75 100 S5        29.99R
$$
...ELSEWHERE ACROSS CENTRAL FLORIDA...

CITY           SKY/WX    TMP DP  RH WIND       PRES   REMARKS
PATRICK AFB    MOCLDY    77  77  99 S9        29.97R
KSC            MOCLDY    76  73  92 SW5       29.97R
CAPE CANAVERAL MOCLDY    76  73  90 SW5       29.98R
SEBASTIAN      FAIR      75  73  95 CALM      30.00R
ORLANDO EXEC   CLOUDY    77  74  90 SW6       29.98R
LEESBURG       RAIN      76  73  91 W10G18    30.00R
SANFORD        CLOUDY    76  74  93 SW5       29.97S
DELAND         LGT RAIN  75  74  97 SW5       29.98S
WINTER HAVEN   MOCLDY    75  72  90 SW5       29.99S
KISSIMMEE      CLOUDY   N/A N/A N/A CALM      29.99S
OKEECHOBEE     PTCLDY   N/A N/A N/A MISG      29.99R
TAMPA          CLOUDY    84  77  79 NW12      29.99R
$$
...NORTHERN FLORIDA...

CITY           SKY/WX    TMP DP  RH WIND       PRES   REMARKS
PALM COAST     CLOUDY   N/A N/A N/A SW6       29.96
ST AUGUSTINE   LGT RAIN  75  74  96 SW5       29.96R
OCALA          RAIN      74  74 100 S9        29.99F
GAINESVILLE    RAIN      74  73  97 S12G21    29.97F FOG
JACKSONVILLE   CLOUDY    74  73  97 S8        29.91S
TALLAHASSEE    CLOUDY    75  74  96 SW3       29.91S
$$
...ALONG THE SOUTHEAST COAST TO THE KEYS...

CITY           SKY/WX    TMP DP  RH WIND       PRES   REMARKS
STUART         MOCLDY    79  75  89 CALM      30.00R
WEST PALM BCH  MOCLDY    81  77  88 S6        30.00R
MIAMI          MOCLDY    82  77  84 S5        29.99R
KEY WEST       CLEAR     84  75  74 S8        29.99S
$$
...MARINE REPORTS...

STATION/POSITION TIME  TEMP    WIND        PRES    WAVE   SWELL
                       AIR SEA DIR/SP/G            HT/PER HT/PER
                 (UTC) (F)     (DEG/KT/KT) (MB)    (FT/S) (FT/S)
ST AUGUSTINE FP  1000   75 82  210/  5/  6 1014.4R
20NM E CAPE CANA 0950   80 82  200/ 10/ 12 1014.5R   2/ 8   2/ 8
120 E NEW SMYRNA 0950   82     170/ 16/ 17 1015.6F
TRIDENT PIER     0930   78 83  200/  9/ 11   N/A
4NM E PORT CANAV 0956      80                N/A     2/ 4
6NM NE FPR INLET 0956      80                N/A     1/ 3
SETTLEMENT PT GB 1000   83     180/ 11/ 14 1015.9S
$$



USA.gov is the U.S. government's official web portal to all federal, state and local government web resources and services.